Orbital Elements at Epoch 2459200.5 (2020-Dec-17.0) TDB
Reference: JPL 13 (heliocentric ecliptic J2000)
Element | Value | Uncertainty (1-sigma) | Units |
e | .1627294517913697 | 7.6904e-08 | |
a | 2.424294890414775 | 1.6424e-08 | au |
q | 2.02979071191696 | 1.8209e-07 | au |
i | 3.872794976549883 | 7.9522e-06 | deg |
node | 59.31884526673689 | 7.9605e-05 | deg |
peri | 182.7106741038708 | 8.1414e-05 | deg |
M | 159.1684926641799 | 1.8756e-05 | deg |
tp | 2458590.919313318896 (2019-Apr-17.41931332) | 6.9694e-05 | TDB |
period | 1378.721652332287 3.77 | 1.401e-05 3.836e-08 | d yr |
n | .2611114429014829 | 2.6534e-09 | deg/d |
Q | 2.818799068912591 | 1.9096e-08 | au |
|
| | Orbit Determination Parameters
Additional Information
|